Regional Weather Roundup
Issued by NWS

Home | Current Version | Previous Version | Graphics & Text | Print | Product List | Glossary On
Versions: 1 2 3 4 5 6 7 8 9 10 11 12 13 14 15 16 17 18 19 20 21 22 23 24 25 26 27 28 29 30 31 32 33 34 35 36 37 38 39 40 41 42 43 44 45 46 47 48 49 50
000
ASUS43 KMPX 260701
RWRMN
WEATHER ROUNDUP FOR MINNESOTA
NATIONAL WEATHER SERVICE TWIN CITIES/CHANHASSEN MN
200 AM CDT SAT JUL 26 2014


NOTE: "FAIR" INDICATES FEW OR NO CLOUDS BELOW 12,000 FEET WITH NO
SIGNIFICANT WEATHER AND/OR OBSTRUCTIONS TO VISIBILITY. N/A MEANS
CURRENT SKY AND/OR WEATHER CONDITIONS ARE NOT AVAILABLE.

MNZ060>063-068>070-260800-
   Twin Cities Metro

CITY           SKY/WX    TMP DP  RH WIND       PRES   REMARKS
TWIN CITIES    MOCLDY    75  70  84 CALM      29.80S
ST PAUL        CLOUDY    74  70  87 CALM      29.80S
CRYSTAL        CLOUDY    76  69  79 S5        29.78F
BLAINE         PTCLDY    73  72  94 CALM      29.80S
LAKEVILLE      CLOUDY    70  68  94 CALM      29.81S
EDEN PRAIRIE   CLOUDY    73  69  87 S3        29.79F
SOUTH ST PAUL  MOCLDY    73  70  89 CALM      29.80S
LAKE ELMO      MOCLDY    72  70  94 S6        29.81F
$$
MNZ001>005-007-008-013>017-022>024-027-028-260800-
   Northwest Minnesota

CITY           SKY/WX    TMP DP  RH WIND       PRES   REMARKS
BEMIDJI        CLEAR     58  54  87 CALM      29.80S
HALLOCK        CLEAR     61  55  82 SW3       29.75S
ROSEAU         CLEAR     59  54  82 SW3       29.75R
WARROAD        CLEAR     61  55  82 CALM      29.74F
THIEF RVR FALL CLEAR     61  55  82 SW5       29.79F
CROOKSTON      CLEAR     61  55  82 S3        29.79S
FOSSTON        CLEAR     54  52  94 S3        29.81S
DETROIT LAKES  CLEAR     63  59  88 CALM      29.83S
MOORHEAD       CLEAR     63  59  88 CALM      29.81F
PARK RAPIDS    CLEAR     59  57  93 CALM      29.81F
$$
MNZ006-009>011-018-025>026-260800-
   North Central Minnesota

CITY           SKY/WX    TMP DP  RH WIND       PRES   REMARKS
BAUDETTE       CLEAR     59  54  83 SW3       29.75S
FLAG ISLAND    CLEAR     64  55  72 W8        29.71S
INTL FALLS     CLEAR     62  59  90 W6        29.74R
WASKISH        CLEAR     70  61  73 W8        29.76F
BIG FORK       CLEAR     64  63  94 W1        29.78S
LONGVILLE      CLEAR     63  61  94 CALM      29.80F
GRAND RAPIDS   PTCLDY    70  61  73 W8        29.79S
CRANE LAKE     PTCLDY    64  63  94 CALM      29.76R
ORR            CLEAR     64  63  94 CALM      29.74R
COOK           MOCLDY    66  64  94 W3        29.77R
$$
MNZ012-019>021-037-260800-
   Northeast Minnesota

CITY           SKY/WX    TMP DP  RH WIND       PRES   REMARKS
DULUTH         CLOUDY    70  67  90 SW10      29.77F
ELY            CLOUDY    68  64  88 SW5       29.76R
HIBBING        FOG       66  63  90 W3        29.77S VSB 3/4
EVELETH        CLOUDY    68  66  94 W9        29.77F
DULUTH HARBOR  MOCLDY    70  66  88 SW7       29.76F
TWO HARBORS    CLOUDY    66  63  88 SW3       29.74F
SILVER BAY     PTCLDY    66  66 100 CALM      29.74F
GRAND MARAIS     N/A     54  52  93 CALM      29.74F
G MARAIS ARPRT CLOUDY    64  61  88 CALM      29.78F
$$
MNZ029>031-032-039>041-046>048-054>057-064-260800-
   West Central Minnesota

CITY           SKY/WX    TMP DP  RH WIND       PRES   REMARKS
FERGUS FALLS   CLEAR     63  55  77 CALM      29.82S
WHEATON        CLEAR     61  61 100 S3        29.85S
MORRIS         FOG       63  63 100 W3        29.83S VSB<1/4
ALEXANDRIA     CLEAR     65  63  93 CALM      29.85F
ELBOW LAKE     FAIR      64  59  85 CALM      29.82F
WADENA         CLEAR     57  55  94 CALM      29.82F
GLENWOOD       CLEAR     66  64  94 NW5       29.85S
APPLETON       CLEAR     66  64  94 CALM      29.84R
BENSON         CLEAR     64  64 100 NW5       29.84S FOG
ORTONVILLE     PTCLDY    66  64  94 CALM      29.84S
MADISON        CLEAR     66  64  94 SW3       29.85S FOG
WILLMAR        FAIR      70  66  88 NW6       29.85R
$$
MNZ033>034-036-042>043-049>051-058-059-260800-
   Central Minnesota

CITY           SKY/WX    TMP DP  RH WIND       PRES   REMARKS
ST CLOUD       CLEAR     71  68  90 NW3       29.81S FOG
SAUK CENTRE    FAIR      68  66  93 NW6       29.84S
PAYNESVILLE    HVY RAIN  63  64 100 CALM      29.83F
AITKIN         PTCLDY    72  64  78 CALM      29.78F
PINE RIVER     CLEAR     64  63  94 CALM      29.84F FOG
BRAINERD       CLEAR     69  64  84 W6        29.81F
STAPLES        CLEAR     63  61  94 CALM      29.82F
LONG PRAIRIE   FAIR      66  63  88 W5        29.83F
LITTLE FALLS   CLEAR     66  64  94 CALM      29.82S
LITCHFIELD     PTCLDY    72  72 100 NW7       29.83S
BUFFALO        MOCLDY    73  68  86 CALM      29.81S
MAPLE LAKE     MOCLDY    73  71  94 W3        29.82S
$$
MNZ037-044-045-052-053-260800-
   East Central Minnesota

CITY           SKY/WX    TMP DP  RH WIND       PRES   REMARKS
PRINCETON      MOCLDY    72  70  94 CALM      29.80F
MORA           MOCLDY    70  68  94 CALM      29.82S
CAMBRIDGE      CLEAR     73  64  73 SW3       29.78S
RUSH CITY      MOCLDY    70  68  92 CALM      29.80S
MOOSE LAKE     CLOUDY    68  66  94 SW3       29.77S FOG
HINCKLEY       PTSUNNY   68  68 100 CALM      29.80S
CLOQUET        CLOUDY    70  66  88 SW7       29.78F
MCGREGOR       PTCLDY    70  68  94 W5        29.79F
$$
MNZ071>073-080-081-089-090-097-098-260800-
   Southwest Minnesota

CITY           SKY/WX    TMP DP  RH WIND       PRES   REMARKS
MONTEVIDEO     CLEAR     66  66 100 CALM      29.85S FOG
GRANITE FALLS  CLEAR     66  65  96 CALM      29.87R FOG
CANBY          CLEAR     65  64  96 CALM      29.87S
MARSHALL       CLEAR     66  64  94 NW8       29.86S
REDWOOD FALLS  PTCLDY    72  70  93 NW7       29.83R
OLIVIA         CLEAR     70  66  88 NW6       29.84R
PIPESTONE      CLOUDY    72  68  88 NE5       29.89R
WINDOM         MOCLDY    72  70  94 W3        29.85R FOG
WORTHINGTON    CLOUDY    73  72  94 NW7       29.88R
JACKSON        MOCLDY    70  66  88 W6        29.85S FOG
TRACY          PTCLDY    70  68  95 NW6       29.87R FOG
SLAYTON        CLOUDY    70  69  98 CALM      29.89R FOG
$$
MNZ065>067-074>077-082>085-091>093-260800-
   South Central Minnesota

CITY           SKY/WX    TMP DP  RH WIND       PRES   REMARKS
MANKATO        CLOUDY    72  66  83 S5        29.81F
NEW ULM        CLEAR     72  72 100 SW3       29.80F
ST JAMES       PTCLDY    70  66  88 CALM      29.81F FOG
FAIRMONT       PTCLDY    70  64  83 S3        29.82F
GLENCOE        CLEAR     73  68  86 CALM      29.80S
FARIBAULT      PTCLDY    73  66  78 S3        29.82S
OWATONNA       PTCLDY    72  68  88 S6        29.83R
WASECA         PTCLDY    68  64  88 S3        29.84S FOG
ALBERT LEA     CLOUDY    73  70  88 CALM      29.83S
$$
MNZ078>079-086>088-094>096-260800-
   Southeast Minnesota

CITY           SKY/WX    TMP DP  RH WIND       PRES   REMARKS
ROCHESTER      CLOUDY    69  67  93 S9        29.85F
RED WING       CLOUDY    72  70  94 S5        29.81R
STANTON        CLEAR     71  67  88 CALM      29.80S
DODGE CENTER   CLOUDY    72  70  94 S6        29.84S FOG
WINONA         CLOUDY    70  64  83 SE6       29.83F
AUSTIN         MOCLDY    72  70  94 S5        29.84S FOG
PRESTON        CLOUDY    67  67 100 S10       29.87S FOG
$$
ABBREVIATIONS USED IN REMARKS
   TC - TEMPERATURES IN CELSIUS
  WCI - WIND CHILL INDEX
   HX - HEAT INDEX
  VSB - VISIBILITY
$$



USA.gov is the U.S. government's official web portal to all federal, state and local government web resources and services.